Campo, CA

12:45 AM PDT on July 21, 2019 (GMT -0700)
Campo

Weather History for KCZZ - May, 2019

Change the Weather History Date:

Saturday, May 11, 2019

  Actual Average Record
Temperature  
Mean Temperature 62 °F 60 °F  
Max Temperature 71 °F 79 °F 96 °F (1996)
Min Temperature 52 °F 42 °F 30 °F (2002)
Degree Days  
Heating Degree Days 3 6  
Month to date heating degree days 107 70  
Since 1 July heating degree days 2825 2838  
Cooling Degree Days 0 1  
Month to date cooling degree days 0 6  
Year to date cooling degree days 2 9  
Growing Degree Days 12 (Base 50)    
Moisture  
Dew Point 51 °F    
Average Humidity 71    
Maximum Humidity 100    
Minimum Humidity 41    
Precipitation  
Precipitation 0.35 in 0.00 in 1.05 in (1957)
Month to date precipitation 0.52 0.11  
Year to date precipitation 11.71 9.97  
Sea Level Pressure  
Sea Level Pressure 29.83 in    
Wind  
Wind Speed 4 mph (SW)    
Max Wind Speed 16 mph    
Max Gust Speed 23 mph    
T = Trace of Precipitation, MM = Missing Value Source: NWS Daily Summary

Daily Weather History Graph

Daily Weather History Graph

Search for Another Location

Airport or City:

Astronomy

May. 11, 2019 Rise Set
Actual Time 5:50 AM PDT 7:34 PM PDT
Civil Twilight 5:23 AM PDT 8:01 PM PDT
Nautical Twilight 4:51 AM PDT 8:33 PM PDT
Astronomical Twilight 4:17 AM PDT 9:08 PM PDT
Moon 12:04 PM PDT (5/11) 1:17 AM PDT (5/11)
Length of Visible Light 14h 37m
Length of Day
13h 44m
Waxing Crescent, 47% of the Moon is Illuminated
May 11
Waxing Crescent
May 11
First Quarter
May 18
Full
May 26
Last Quarter
Jun 3
New

Hourly Weather History & Observations

Time (PDT) Temp. Dew Point Humidity Pressure Visibility Wind Dir Wind Speed Gust Speed Precip Events Conditions
12:52 AM 53.1 °F 50.0 °F 89% 29.83 in - Calm Calm - N/A   Unknown
1:52 AM 52.0 °F 48.9 °F 89% 29.83 in - Calm Calm - N/A   Unknown
2:52 AM 53.1 °F 50.0 °F 89% 29.81 in - Calm Calm - N/A   Unknown
3:52 AM 52.0 °F 48.9 °F 89% 29.82 in - SSW 4.6 mph - N/A   Unknown
4:52 AM 53.1 °F 50.0 °F 89% 29.82 in - Calm Calm - N/A   Unknown
5:52 AM 52.0 °F 50.0 °F 93% 29.83 in - SSW 4.6 mph - 0.01 in   Unknown
6:52 AM 52.0 °F 50.0 °F 93% 29.86 in - Calm Calm - N/A   Unknown
7:52 AM 53.1 °F 51.1 °F 93% 29.86 in - Calm Calm - 0.09 in   Unknown
8:52 AM 54.0 °F 53.1 °F 97% 29.86 in - Calm Calm - 0.18 in   Unknown
9:52 AM 54.0 °F 50.0 °F 86% 29.87 in - Calm Calm - 0.04 in   Unknown
10:52 AM 60.1 °F 53.1 °F 78% 29.85 in - WNW 4.6 mph - 0.03 in   Unknown
11:52 AM 61.0 °F 51.1 °F 70% 29.85 in - Calm Calm - N/A   Unknown
12:52 PM 66.0 °F 54.0 °F 65% 29.82 in - ENE 11.5 mph 18.4 mph N/A   Unknown
1:52 PM 68.0 °F 52.0 °F 56% 29.81 in - ENE 11.5 mph 23.0 mph N/A   Unknown
2:52 PM 70.0 °F 48.9 °F 47% 29.78 in - NE 16.1 mph 23.0 mph N/A   Unknown
3:52 PM 71.1 °F 46.0 °F 41% 29.76 in - ENE 5.8 mph - N/A   Unknown
4:30 PM 64.9 °F 55.9 °F 73% 29.84 in - SW 15.0 mph - N/A   Unknown
4:52 PM 63.0 °F 55.0 °F 75% 29.79 in - SSW 15.0 mph - N/A   Unknown
5:52 PM 61.0 °F 55.0 °F 81% 29.80 in - SSW 12.7 mph - N/A   Unknown
6:52 PM 60.1 °F 54.0 °F 80% 29.82 in - SW 6.9 mph - N/A   Unknown
7:52 PM 57.9 °F 53.1 °F 84% 29.84 in - Calm Calm - N/A   Unknown
8:52 PM 55.9 °F 52.0 °F 87% 29.87 in - SSW 6.9 mph - N/A   Unknown
9:52 PM 55.0 °F 51.1 °F 86% 29.87 in - Calm Calm - N/A   Unknown
10:52 PM 54.0 °F 51.1 °F 90% 29.87 in - West 3.5 mph - N/A   Unknown
11:52 PM 55.0 °F 52.0 °F 89% 29.87 in - Calm Calm - N/A   Unknown